This demonstration page uses our WeatherBlox Daily Observations layout. Learn more.

Left ArrowRight Arrow

Hourly Observations for August 23, 2017

Temp ( °F °C ) Dew Point ( °F °C ) Humidity (%) Winds ( mph kmh ) Pressure ( in mb ) Visibility ( mi km ) Precip ( " mm )
12:52 am 00:52 Clear 68 20 64 17.8 87 87 NNE 7 11 30.09 1019 10 16 0.00 0.00
1:52 am 01:52 Clear 66 18.9 63 17.2 90 90 NNE 6 9 30.08 1019 10 16 0.00 0.00
2:52 am 02:52 Clear 65 18.3 63 17.2 93 93 NNE 6 9 30.08 1019 10 16 0.00 0.00
3:52 am 03:52 Clear 64 17.8 62 16.7 93 93 NNE 6 9 30.08 1019 10 16 0.00 0.00
4:52 am 04:52 Clear 63 17.2 60 15.6 90 90 NE 8 13 30.08 1019 10 16 0.00 0.00
5:52 am 05:52 Clear 62 16.7 58 14.4 86 86 NE 8 13 30.09 1019 10 16 0.00 0.00
6:52 am 06:52 Sunny 61 16.1 57 13.9 87 87 NE 7 11 30.11 1020 10 16 0.00 0.00
7:52 am 07:52 Sunny 63 17.2 57 13.9 81 81 ENE 8 13 30.11 1020 10 16 0.00 0.00
8:52 am 08:52 Sunny 68 20 58 14.4 70 70 ENE 10 17 30.11 1020 10 16 0.00 0.00
9:52 am 09:52 Sunny 71 21.7 58 14.4 63 63 NE 10 17 30.11 1020 10 16 0.00 0.00
10:52 am 10:52 Sunny 73 22.8 55 12.8 53 53 NE 12 19 30.11 1020 10 16 0.00 0.00
11:52 am 11:52 Sunny 75 23.9 57 13.9 54 54 NNE 8 13 30.10 1019 10 16 0.00 0.00
12:52 pm 12:52 Sunny 76 24.4 56 13.3 50 50 NE 6 9 30.09 1019 10 16 0.00 0.00
1:52 pm 13:52 Sunny 77 25 55 12.8 47 47 ENE 7 11 30.07 1018 10 16 0.00 0.00
2:52 pm 14:52 Sunny 78 25.6 55 12.8 45 45 NNE 12 19 30.06 1018 10 16 0.00 0.00
3:52 pm 15:52 Sunny 78 25.6 55 12.8 45 45 NE 6 9 30.03 1017 10 16 0.00 0.00
4:52 pm 16:52 Sunny 79 26.1 56 13.3 45 45 N 9 15 30.02 1017 10 16 0.00 0.00
5:52 pm 17:52 Sunny 78 25.6 54 12.2 43 43 NE 9 15 30.01 1016 10 16 0.00 0.00
6:52 pm 18:52 Sunny 76 24.4 54 12.2 47 47 NNE 8 13 30.01 1016 10 16 0.00 0.00
7:52 pm 19:52 Sunny 71 21.7 56 13.3 59 59 NE 7 11 30.02 1017 10 16 0.00 0.00
8:52 pm 20:52 Clear 69 20.6 57 13.9 66 66 ENE 7 11 30.02 1017 10 16 0.00 0.00
9:52 pm 21:52 Clear 67 19.4 57 13.9 71 71 ENE 6 9 30.04 1017 10 16 0.00 0.00
10:52 pm 22:52 Clear 66 18.9 57 13.9 73 73 ENE 6 9 30.04 1017 10 16 0.00 0.00
11:52 pm 23:52 Clear 65 18.3 56 13.3 73 73 ENE 6 9 30.04 1017 10 16 0.00 0.00

Powered by AerisWeather